YAMAL 401

Last updated on Fri Nov 07 2025 00:02:50 GMT+0000 (Coordinated Universal Time)

1 40345U 14082A 25310.12336541 -.00000219 00000+0 00000+0 0 9998 2 40345 0.0130 256.8703 0000928 352.6240 290.4971 1.00271443 39684
UTC large
Height (km)
Speed (km/s)
/
Latitude / Longitude
Inclination (degrees)
Orbital Period (minutes)
Azimuth
Elevation
Range (km)
Doppler Factor

Next 0 passes for location: London (51.5072 / 0.1276)

Sorry there are no passes over London.